| time (UTC) | temp F | wind direction | speed MPH | gust MPH | rain 1hr in | rain 24hr in | rain mn in | humidity % | barometer mb |
| 20260505124647 | 54 | 133 | 1.0 | 3.0 | 0.00 | 0.02 | 0.01 | 88 | 1011.1 |
| 20260505124149 | 54 | 112 | 0.0 | 3.0 | 0.00 | 0.02 | 0.01 | 88 | 1011.1 |
| 20260505123648 | 54 | 149 | 1.0 | 3.0 | 0.00 | 0.02 | 0.01 | 88 | 1011.0 |
| 20260505123147 | 54 | 148 | 0.0 | 4.0 | 0.00 | 0.02 | 0.01 | 88 | 1011.0 |
| 20260505122648 | 54 | 140 | 0.0 | 4.0 | 0.00 | 0.02 | 0.01 | 88 | 1011.0 |
| 20260505122146 | 54 | 163 | 1.0 | 4.0 | 0.00 | 0.02 | 0.01 | 88 | 1011.0 |
| 20260505121149 | 54 | 105 | 1.0 | 3.0 | 0.00 | 0.02 | 0.01 | 88 | 1011.0 |
| 20260505120147 | 54 | 77 | 1.0 | 3.0 | 0.00 | 0.02 | 0.01 | 88 | 1011.0 |
| 20260505115648 | 54 | 95 | 0.0 | 4.0 | 0.00 | 0.02 | 0.01 | 88 | 1011.0 |
| 20260505115147 | 54 | 117 | 2.0 | 4.0 | 0.00 | 0.02 | 0.01 | 88 | 1011.0 |
| 20260505114149 | 54 | 103 | 1.0 | 3.0 | 0.00 | 0.02 | 0.01 | 88 | 1011.0 |
| 20260505113147 | 54 | 205 | 1.0 | 5.0 | 0.00 | 0.02 | 0.01 | 88 | 1011.0 |
| 20260505112648 | 54 | 170 | 2.0 | 5.0 | 0.00 | 0.02 | 0.01 | 88 | 1011.0 |
| 20260505112147 | 54 | 98 | 2.0 | 4.0 | 0.00 | 0.02 | 0.01 | 88 | 1011.0 |
| 20260505111647 | 54 | 107 | 1.0 | 2.0 | 0.00 | 0.02 | 0.01 | 88 | 1011.0 |
| 20260505111150 | 54 | 169 | 0.0 | 6.0 | 0.00 | 0.02 | 0.01 | 88 | 1011.0 |
| 20260505110647 | 54 | 138 | 1.0 | 6.0 | 0.00 | 0.02 | 0.01 | 88 | 1010.9 |
| 20260505110148 | 54 | 179 | 2.0 | 6.0 | 0.00 | 0.02 | 0.01 | 88 | 1010.9 |
| 20260505102147 | 54 | 218 | 4.0 | 7.0 | 0.00 | 0.02 | 0.01 | 88 | 1010.9 |
| 20260505100147 | 54 | 205 | 3.0 | 8.0 | 0.00 | 0.02 | 0.01 | 88 | 1010.9 |
| 20260505095648 | 54 | 190 | 2.0 | 8.0 | 0.00 | 0.02 | 0.01 | 88 | 1010.8 |
| 20260505094647 | 55 | 142 | 4.0 | 10.0 | 0.00 | 0.02 | 0.01 | 88 | 1010.9 |
| 20260505094149 | 55 | 163 | 2.0 | 10.0 | 0.00 | 0.02 | 0.01 | 88 | 1010.9 |
| 20260505093647 | 55 | 200 | 1.0 | 10.0 | 0.00 | 0.02 | 0.01 | 88 | 1010.9 |
| 20260505093147 | 55 | 212 | 1.0 | 7.0 | 0.01 | 0.02 | 0.01 | 88 | 1010.8 |
| 20260505092648 | 55 | 183 | 4.0 | 6.0 | 0.01 | 0.02 | 0.01 | 88 | 1010.8 |
| 20260505091647 | 55 | 203 | 0.0 | 4.0 | 0.01 | 0.02 | 0.01 | 88 | 1010.8 |
| 20260505091149 | 55 | 233 | 2.0 | 4.0 | 0.01 | 0.02 | 0.01 | 88 | 1010.8 |
| 20260505090647 | 55 | 165 | 1.0 | 4.0 | 0.01 | 0.02 | 0.01 | 88 | 1010.8 |
| 20260505090148 | 55 | 158 | 0.0 | 2.0 | 0.01 | 0.01 | 0.01 | 88 | 1010.8 |
| 20260505084647 | 55 | 228 | 0.0 | 5.0 | 0.01 | 0.01 | 0.01 | 88 | 1010.7 |
| 20260505084149 | 55 | 135 | 0.0 | 2.0 | 0.01 | 0.01 | 0.01 | 88 | 1010.7 |
| 20260505083647 | 55 | 161 | 0.0 | 6.0 | 0.01 | 0.01 | 0.01 | 88 | 1010.7 |
| 20260505083147 | 55 | 201 | 1.0 | 6.0 | 0.00 | 0.01 | 0.01 | 88 | 1010.7 |
| 20260505082648 | 55 | 215 | 3.0 | 6.0 | 0.00 | 0.01 | 0.00 | 88 | 1010.7 |
| 20260505082146 | 55 | 225 | 3.0 | 5.0 | 0.00 | 0.01 | 0.00 | 88 | 1010.7 |
| 20260505081649 | 55 | 200 | 2.0 | 4.0 | 0.00 | 0.01 | 0.00 | 88 | 1010.6 |
| 20260505081149 | 55 | 259 | 3.0 | 3.0 | 0.00 | 0.01 | 0.00 | 88 | 1010.6 |
| 20260505080147 | 55 | 196 | 1.0 | 4.0 | 0.00 | 0.01 | 0.00 | 88 | 1010.5 |
| 20260505075648 | 55 | 191 | 2.0 | 4.0 | 0.00 | 0.01 | 0.00 | 88 | 1010.6 |
| 20260505075147 | 55 | 135 | 1.0 | 4.0 | 0.00 | 0.01 | 0.00 | 88 | 1010.5 |
| 20260505074647 | 55 | 133 | 0.0 | 7.0 | 0.00 | 0.01 | 0.00 | 88 | 1010.5 |
| 20260505074150 | 55 | 182 | 2.0 | 7.0 | 0.00 | 0.01 | 0.00 | 88 | 1010.5 |
| 20260505073647 | 55 | 214 | 0.0 | 7.0 | 0.00 | 0.01 | 0.00 | 88 | 1010.5 |
| 20260505072648 | 55 | 184 | 2.0 | 15.0 | 0.00 | 0.01 | 0.00 | 88 | 1010.5 |
| 20260505072147 | 55 | 180 | 3.0 | 15.0 | 0.00 | 0.01 | 0.00 | 88 | 1010.4 |
| 20260505071647 | 55 | 179 | 3.0 | 15.0 | 0.00 | 0.01 | 0.00 | 88 | 1010.4 |
| 20260505071149 | 55 | 172 | 6.0 | 9.0 | 0.00 | 0.01 | 0.00 | 87 | 1010.4 |
| 20260505070647 | 55 | 177 | 2.0 | 8.0 | 0.00 | 0.01 | 0.00 | 88 | 1010.4 |
| 20260505070147 | 55 | 191 | 4.0 | 8.0 | 0.00 | 0.01 | 0.00 | 88 | 1010.5 |
| 20260505065648 | 55 | 198 | 4.0 | 8.0 | 0.00 | 0.01 | 0.01 | 87 | 1010.5 |
| 20260505065147 | 55 | 201 | 3.0 | 5.0 | 0.00 | 0.01 | 0.01 | 87 | 1010.5 |
| 20260505064647 | 55 | 168 | 2.0 | 5.0 | 0.00 | 0.01 | 0.01 | 87 | 1010.5 |
| 20260505064149 | 55 | 186 | 2.0 | 6.0 | 0.01 | 0.01 | 0.01 | 87 | 1010.6 |
| 20260505063647 | 55 | 250 | 3.0 | 6.0 | 0.01 | 0.01 | 0.01 | 87 | 1010.6 |
| 20260505062649 | 55 | 161 | 3.0 | 7.0 | 0.01 | 0.01 | 0.01 | 87 | 1010.6 |
| 20260505062147 | 55 | 166 | 2.0 | 7.0 | 0.01 | 0.01 | 0.01 | 87 | 1010.5 |
| 20260505061647 | 55 | 182 | 2.0 | 7.0 | 0.01 | 0.01 | 0.01 | 87 | 1010.5 |
| 20260505060647 | 55 | 194 | 2.0 | 6.0 | 0.01 | 0.01 | 0.01 | 87 | 1010.6 |
| 20260505060147 | 55 | 179 | 3.0 | 6.0 | 0.01 | 0.01 | 0.01 | 87 | 1010.6 |
| 20260505055647 | 56 | 212 | 2.0 | 6.0 | 0.01 | 0.01 | 0.01 | 87 | 1010.6 |
| 20260505055147 | 55 | 170 | 0.0 | 4.0 | 0.01 | 0.01 | 0.01 | 87 | 1010.6 |
| 20260505054646 | 55 | 197 | 2.0 | 4.0 | 0.01 | 0.01 | 0.01 | 87 | 1010.6 |
| 20260505054148 | 55 | 179 | 0.0 | 4.0 | 0.00 | 0.01 | 0.01 | 87 | 1010.6 |
| 20260505053647 | 55 | 169 | 0.0 | 1.0 | 0.00 | 0.00 | 0.00 | 87 | 1010.6 |
| 20260505053147 | 55 | 0 | 0.0 | 7.0 | 0.00 | 0.00 | 0.00 | 87 | 1010.5 |
| 20260505051646 | 55 | 138 | 4.0 | 8.0 | 0.00 | 0.00 | 0.00 | 87 | 1010.7 |
| 20260505051149 | 55 | 186 | 3.0 | 8.0 | 0.00 | 0.00 | 0.00 | 87 | 1010.7 |
| 20260505050651 | 55 | 172 | 4.0 | 8.0 | 0.00 | 0.00 | 0.00 | 87 | 1010.7 |
| 20260505050147 | 55 | 233 | 3.0 | 8.0 | 0.00 | 0.00 | 0.00 | 87 | 1010.7 |
| 20260505041647 | 56 | 172 | 1.0 | 8.0 | 0.00 | 0.00 | 0.00 | 86 | 1010.3 |
| 20260505041150 | 56 | 253 | 3.0 | 9.0 | 0.00 | 0.00 | 0.00 | 86 | 1010.3 |
| 20260505040646 | 56 | 215 | 5.0 | 9.0 | 0.00 | 0.00 | 0.00 | 85 | 1010.3 |
| 20260505040146 | 56 | 239 | 5.0 | 9.0 | 0.00 | 0.00 | 0.00 | 85 | 1010.2 |
| 20260505035647 | 56 | 189 | 5.0 | 9.0 | 0.00 | 0.00 | 0.00 | 85 | 1010.2 |
| 20260505035146 | 56 | 189 | 4.0 | 9.0 | 0.00 | 0.00 | 0.00 | 85 | 1010.1 |
| 20260505034646 | 56 | 201 | 3.0 | 8.0 | 0.00 | 0.00 | 0.00 | 85 | 1010.1 |
| 20260505034147 | 56 | 200 | 4.0 | 8.0 | 0.00 | 0.00 | 0.00 | 85 | 1010.0 |
| 20260505033647 | 56 | 256 | 3.0 | 8.0 | 0.00 | 0.00 | 0.00 | 85 | 1009.9 |
| 20260505033146 | 56 | 173 | 0.0 | 8.0 | 0.00 | 0.00 | 0.00 | 85 | 1009.8 |
| 20260505032650 | 56 | 154 | 4.0 | 8.0 | 0.00 | 0.00 | 0.00 | 84 | 1009.8 |
| 20260505032146 | 56 | 221 | 1.0 | 6.0 | 0.00 | 0.00 | 0.00 | 84 | 1009.8 |
| 20260505031646 | 56 | 194 | 4.0 | 6.0 | 0.00 | 0.00 | 0.00 | 84 | 1009.7 |
| 20260505031148 | 56 | 246 | 4.0 | 10.0 | 0.00 | 0.00 | 0.00 | 84 | 1009.7 |
| 20260505030646 | 56 | 191 | 4.0 | 10.0 | 0.00 | 0.00 | 0.00 | 84 | 1009.6 |
| 20260505025648 | 56 | 214 | 5.0 | 8.0 | 0.00 | 0.00 | 0.00 | 84 | 1009.6 |
| 20260505025146 | 56 | 172 | 4.0 | 8.0 | 0.00 | 0.00 | 0.00 | 83 | 1009.7 |
| 20260505024646 | 56 | 219 | 3.0 | 8.0 | 0.00 | 0.00 | 0.00 | 83 | 1009.6 |
| 20260505024149 | 57 | 203 | 5.0 | 8.0 | 0.00 | 0.00 | 0.00 | 84 | 1009.6 |
| 20260505023646 | 57 | 198 | 2.0 | 8.0 | 0.00 | 0.00 | 0.00 | 83 | 1009.7 |
| 20260505023146 | 57 | 172 | 3.0 | 8.0 | 0.00 | 0.00 | 0.00 | 83 | 1009.7 |
| 20260505022647 | 57 | 232 | 2.0 | 10.0 | 0.00 | 0.00 | 0.00 | 83 | 1009.7 |
| 20260505022146 | 57 | 159 | 2.0 | 10.0 | 0.00 | 0.00 | 0.00 | 83 | 1009.8 |
| 20260505021646 | 57 | 183 | 4.0 | 10.0 | 0.00 | 0.00 | 0.00 | 83 | 1009.8 |
| 20260505021149 | 57 | 210 | 5.0 | 11.0 | 0.00 | 0.00 | 0.00 | 82 | 1009.8 |
| 20260505020146 | 57 | 198 | 4.0 | 11.0 | 0.00 | 0.00 | 0.00 | 82 | 1009.9 |
| 20260505015647 | 57 | 196 | 5.0 | 10.0 | 0.00 | 0.00 | 0.00 | 82 | 1009.9 |
| 20260505014646 | 57 | 189 | 3.0 | 13.0 | 0.00 | 0.00 | 0.00 | 81 | 1009.8 |
| 20260505014148 | 57 | 155 | 4.0 | 13.0 | 0.00 | 0.00 | 0.00 | 81 | 1009.8 |
| 20260505013647 | 57 | 233 | 5.0 | 13.0 | 0.00 | 0.00 | 0.00 | 81 | 1009.9 |
| 20260505013146 | 57 | 190 | 5.0 | 11.0 | 0.00 | 0.00 | 0.00 | 82 | 1009.9 |
| 20260505012648 | 57 | 166 | 5.0 | 11.0 | 0.00 | 0.00 | 0.00 | 81 | 1010.0 |
| 20260505012146 | 57 | 190 | 6.0 | 9.0 | 0.00 | 0.00 | 0.00 | 82 | 1010.0 |
| 20260505011646 | 57 | 163 | 5.0 | 13.0 | 0.00 | 0.00 | 0.00 | 82 | 1010.1 |
| 20260505011149 | 58 | 186 | 5.0 | 13.0 | 0.00 | 0.00 | 0.00 | 81 | 1010.2 |
| 20260505010646 | 58 | 176 | 5.0 | 13.0 | 0.00 | 0.00 | 0.00 | 81 | 1010.2 |
| 20260505010149 | 58 | 177 | 6.0 | 11.0 | 0.00 | 0.00 | 0.00 | 82 | 1010.3 |
| 20260505005648 | 58 | 175 | 5.0 | 11.0 | 0.00 | 0.00 | 0.00 | 82 | 1010.1 |
| 20260505005146 | 58 | 249 | 6.0 | 11.0 | 0.00 | 0.00 | 0.00 | 82 | 1010.2 |
| 20260505004148 | 58 | 154 | 6.0 | 10.0 | 0.00 | 0.00 | 0.00 | 82 | 1010.2 |
| 20260505003646 | 58 | 175 | 4.0 | 10.0 | 0.00 | 0.00 | 0.00 | 82 | 1010.1 |
| 20260505003146 | 58 | 186 | 5.0 | 9.0 | 0.00 | 0.00 | 0.00 | 82 | 1010.2 |
| 20260505002647 | 58 | 193 | 4.0 | 9.0 | 0.00 | 0.00 | 0.00 | 82 | 1010.3 |
| 20260505002146 | 58 | 170 | 4.0 | 10.0 | 0.00 | 0.00 | 0.00 | 82 | 1010.3 |
| 20260505001148 | 59 | 201 | 5.0 | 10.0 | 0.00 | 0.00 | 0.00 | 82 | 1010.3 |
| 20260505000646 | 59 | 268 | 5.0 | 11.0 | 0.00 | 0.00 | 0.00 | 82 | 1010.4 |
| 20260505000147 | 59 | 226 | 4.0 | 11.0 | 0.00 | 0.00 | 0.00 | 82 | 1010.5 |
| 20260504235648 | 59 | 219 | 4.0 | 11.0 | 0.00 | 0.00 | 0.00 | 83 | 1010.6 |
| 20260504235146 | 59 | 155 | 5.0 | 10.0 | 0.00 | 0.00 | 0.00 | 83 | 1010.6 |
| 20260504234646 | 59 | 259 | 3.0 | 10.0 | 0.00 | 0.00 | 0.00 | 82 | 1010.6 |
| 20260504234148 | 59 | 228 | 5.0 | 10.0 | 0.00 | 0.00 | 0.00 | 83 | 1010.6 |
| 20260504233646 | 59 | 189 | 2.0 | 10.0 | 0.00 | 0.00 | 0.00 | 82 | 1010.6 |
| 20260504233146 | 59 | 233 | 4.0 | 10.0 | 0.00 | 0.00 | 0.00 | 82 | 1010.6 |
| 20260504232647 | 59 | 211 | 3.0 | 10.0 | 0.00 | 0.00 | 0.00 | 82 | 1010.6 |
| 20260504232146 | 59 | 224 | 5.0 | 11.0 | 0.00 | 0.00 | 0.00 | 82 | 1010.6 |
| 20260504231646 | 59 | 267 | 7.0 | 11.0 | 0.00 | 0.00 | 0.00 | 82 | 1010.6 |
| 20260504231148 | 59 | 203 | 6.0 | 11.0 | 0.00 | 0.00 | 0.00 | 81 | 1010.6 |
| 20260504230646 | 60 | 218 | 3.0 | 10.0 | 0.00 | 0.00 | 0.00 | 81 | 1010.7 |
| 20260504230146 | 60 | 207 | 5.0 | 14.0 | 0.00 | 0.00 | 0.00 | 80 | 1010.6 |
| 20260504225648 | 60 | 232 | 4.0 | 14.0 | 0.00 | 0.00 | 0.00 | 81 | 1010.6 |
| 20260504225146 | 60 | 240 | 5.0 | 14.0 | 0.00 | 0.00 | 0.00 | 81 | 1010.5 |
| 20260504224646 | 60 | 243 | 6.0 | 11.0 | 0.00 | 0.00 | 0.00 | 81 | 1010.6 |
| 20260504224148 | 60 | 145 | 7.0 | 11.0 | 0.00 | 0.00 | 0.00 | 82 | 1010.6 |
| 20260504223647 | 60 | 239 | 3.0 | 13.0 | 0.00 | 0.00 | 0.00 | 81 | 1010.7 |
| 20260504223146 | 60 | 212 | 5.0 | 13.0 | 0.00 | 0.00 | 0.00 | 82 | 1010.7 |
| 20260504222648 | 60 | 245 | 4.0 | 13.0 | 0.00 | 0.00 | 0.00 | 82 | 1010.6 |
| 20260504222147 | 60 | 245 | 7.0 | 10.0 | 0.00 | 0.00 | 0.00 | 81 | 1010.7 |
| 20260504221646 | 60 | 182 | 5.0 | 10.0 | 0.00 | 0.00 | 0.00 | 82 | 1010.8 |
| 20260504221150 | 60 | 194 | 4.0 | 11.0 | 0.00 | 0.00 | 0.00 | 82 | 1010.8 |
| 20260504220647 | 60 | 247 | 3.0 | 11.0 | 0.00 | 0.00 | 0.00 | 82 | 1010.8 |
| 20260504220146 | 60 | 228 | 4.0 | 11.0 | 0.00 | 0.00 | 0.00 | 82 | 1010.8 |
| 20260504215647 | 59 | 235 | 6.0 | 9.0 | 0.00 | 0.00 | 0.00 | 82 | 1010.9 |
| 20260504215146 | 59 | 165 | 4.0 | 9.0 | 0.00 | 0.00 | 0.00 | 83 | 1010.8 |
| 20260504214646 | 59 | 250 | 5.0 | 12.0 | 0.00 | 0.00 | 0.00 | 83 | 1010.8 |
| 20260504214148 | 59 | 261 | 4.0 | 12.0 | 0.00 | 0.00 | 0.00 | 83 | 1010.9 |
| 20260504213646 | 59 | 152 | 5.0 | 12.0 | 0.00 | 0.00 | 0.00 | 83 | 1010.8 |
| 20260504213146 | 59 | 245 | 6.0 | 11.0 | 0.00 | 0.00 | 0.00 | 82 | 1010.8 |
| 20260504212647 | 60 | 169 | 6.0 | 11.0 | 0.00 | 0.00 | 0.00 | 82 | 1010.9 |
| 20260504212146 | 60 | 221 | 3.0 | 11.0 | 0.00 | 0.00 | 0.00 | 83 | 1010.8 |
| 20260504211646 | 60 | 203 | 5.0 | 10.0 | 0.00 | 0.00 | 0.00 | 82 | 1010.9 |
| 20260504211148 | 60 | 257 | 4.0 | 10.0 | 0.00 | 0.00 | 0.00 | 83 | 1010.9 |
| 20260504210646 | 59 | 176 | 3.0 | 10.0 | 0.00 | 0.00 | 0.00 | 84 | 1011.0 |
| 20260504210146 | 59 | 239 | 4.0 | 11.0 | 0.00 | 0.00 | 0.00 | 84 | 1011.0 |
| 20260504205647 | 59 | 170 | 5.0 | 11.0 | 0.00 | 0.00 | 0.00 | 83 | 1011.0 |
| 20260504205146 | 59 | 196 | 3.0 | 11.0 | 0.00 | 0.00 | 0.00 | 84 | 1011.0 |
| 20260504204646 | 58 | 236 | 6.0 | 12.0 | 0.00 | 0.00 | 0.00 | 84 | 1010.9 |
| 20260504204148 | 58 | 182 | 6.0 | 12.0 | 0.00 | 0.00 | 0.00 | 84 | 1011.0 |
| 20260504203646 | 58 | 182 | 6.0 | 12.0 | 0.00 | 0.00 | 0.00 | 84 | 1011.0 |
| 20260504203146 | 58 | 215 | 6.0 | 12.0 | 0.00 | 0.00 | 0.00 | 85 | 1011.1 |
| 20260504202146 | 58 | 231 | 6.0 | 12.0 | 0.00 | 0.00 | 0.00 | 85 | 1011.1 |
| 20260504201646 | 58 | 198 | 6.0 | 10.0 | 0.00 | 0.00 | 0.00 | 85 | 1011.1 |
| 20260504201149 | 58 | 190 | 4.0 | 9.0 | 0.00 | 0.00 | 0.00 | 85 | 1011.2 |
| 20260504200646 | 58 | 217 | 3.0 | 13.0 | 0.00 | 0.00 | 0.00 | 85 | 1011.2 |
| 20260504200146 | 57 | 182 | 6.0 | 13.0 | 0.00 | 0.00 | 0.00 | 86 | 1011.2 |
| 20260504195647 | 57 | 187 | 5.0 | 13.0 | 0.00 | 0.00 | 0.00 | 85 | 1011.1 |
| 20260504195147 | 57 | 217 | 5.0 | 11.0 | 0.00 | 0.00 | 0.00 | 85 | 1011.1 |
| 20260504194647 | 57 | 218 | 4.0 | 14.0 | 0.00 | 0.00 | 0.00 | 85 | 1011.1 |
| 20260504194148 | 57 | 197 | 8.0 | 14.0 | 0.00 | 0.00 | 0.00 | 85 | 1011.1 |
| 20260504193646 | 58 | 200 | 5.0 | 14.0 | 0.00 | 0.00 | 0.00 | 85 | 1011.1 |
| 20260504193147 | 58 | 235 | 5.0 | 11.0 | 0.00 | 0.00 | 0.00 | 85 | 1011.0 |
| 20260504192146 | 58 | 249 | 4.0 | 13.0 | 0.00 | 0.00 | 0.00 | 86 | 1011.0 |
| 20260504191646 | 58 | 235 | 4.0 | 13.0 | 0.00 | 0.00 | 0.00 | 86 | 1010.9 |
| 20260504191148 | 58 | 246 | 6.0 | 10.0 | 0.00 | 0.00 | 0.00 | 86 | 1011.0 |
| 20260504190646 | 57 | 215 | 5.0 | 10.0 | 0.00 | 0.00 | 0.00 | 86 | 1010.9 |
| 20260504190146 | 57 | 239 | 4.0 | 14.0 | 0.00 | 0.00 | 0.00 | 87 | 1011.0 |
| 20260504185647 | 57 | 182 | 5.0 | 14.0 | 0.00 | 0.00 | 0.00 | 86 | 1010.9 |
| 20260504185146 | 57 | 189 | 8.0 | 14.0 | 0.00 | 0.00 | 0.00 | 87 | 1010.9 |
| 20260504184646 | 57 | 180 | 7.0 | 16.0 | 0.00 | 0.00 | 0.00 | 87 | 1010.9 |
| 20260504184148 | 57 | 197 | 7.0 | 16.0 | 0.00 | 0.00 | 0.00 | 87 | 1011.0 |
| 20260504183646 | 57 | 201 | 7.0 | 16.0 | 0.00 | 0.00 | 0.00 | 87 | 1010.9 |
| 20260504183146 | 57 | 179 | 7.0 | 15.0 | 0.00 | 0.00 | 0.00 | 87 | 1010.9 |
| 20260504182647 | 57 | 165 | 5.0 | 15.0 | 0.00 | 0.00 | 0.00 | 87 | 1010.8 |
| 20260504182146 | 57 | 180 | 6.0 | 14.0 | 0.00 | 0.00 | 0.00 | 87 | 1010.7 |
| 20260504181646 | 57 | 176 | 6.0 | 14.0 | 0.00 | 0.00 | 0.00 | 87 | 1010.7 |
| 20260504181148 | 56 | 198 | 7.0 | 14.0 | 0.00 | 0.00 | 0.00 | 87 | 1010.7 |
| 20260504180646 | 56 | 201 | 6.0 | 14.0 | 0.00 | 0.00 | 0.00 | 87 | 1010.7 |
| 20260504180146 | 57 | 186 | 7.0 | 13.0 | 0.00 | 0.00 | 0.00 | 87 | 1010.6 |
| 20260504175647 | 57 | 182 | 6.0 | 13.0 | 0.00 | 0.00 | 0.00 | 87 | 1010.6 |
| 20260504175146 | 57 | 196 | 3.0 | 13.0 | 0.00 | 0.00 | 0.00 | 88 | 1010.5 |
| 20260504174646 | 56 | 189 | 5.0 | 13.0 | 0.00 | 0.00 | 0.00 | 88 | 1010.5 |
| 20260504174149 | 56 | 189 | 5.0 | 10.0 | 0.00 | 0.00 | 0.00 | 88 | 1010.5 |
| 20260504173646 | 56 | 225 | 5.0 | 10.0 | 0.00 | 0.00 | 0.00 | 88 | 1010.5 |
| 20260504173146 | 56 | 193 | 6.0 | 13.0 | 0.00 | 0.00 | 0.00 | 88 | 1010.5 |
| 20260504172647 | 56 | 217 | 3.0 | 13.0 | 0.00 | 0.00 | 0.00 | 88 | 1010.5 |
| 20260504171645 | 56 | 194 | 3.0 | 12.0 | 0.00 | 0.00 | 0.00 | 88 | 1010.5 |
| 20260504170646 | 56 | 196 | 3.0 | 10.0 | 0.00 | 0.00 | 0.00 | 88 | 1010.4 |
| 20260504160147 | 56 | 196 | 4.0 | 6.0 | 0.00 | 0.00 | 0.00 | 87 | 1010.1 |
| 20260504150646 | 56 | 196 | 1.0 | 3.0 | 0.00 | 0.00 | 0.00 | 87 | 1010.0 |
| 20260504150147 | 56 | 187 | 1.0 | 6.0 | 0.00 | 0.00 | 0.00 | 87 | 1009.9 |
| 20260504141148 | 55 | 100 | 2.0 | 8.0 | 0.00 | 0.00 | 0.00 | 87 | 1009.4 |
| 20260504140646 | 55 | 168 | 3.0 | 8.0 | 0.00 | 0.00 | 0.00 | 87 | 1009.3 |
| 20260504140146 | 55 | 145 | 5.0 | 7.0 | 0.00 | 0.00 | 0.00 | 87 | 1009.2 |
| 20260504130146 | 54 | 179 | 2.0 | 11.0 | 0.00 | 0.00 | 0.00 | 87 | 1008.9 |